Wind_Speed
40 41 41 41 41 41 41 41 41 41 39 38 38 38 39 39 39 39 40 40 41 42 42 42 43 43 42 42 42 43 43 43 44 44 44 45 44 44
41 41 41 40 40 40 40 40 41 41 40 39 39 39 39 39 39 39 40 41 42 42 42 42 42 41 41 41 42 43 43 44 45 46 46 46 46 45
40 40 40 40 40 40 41 41 41 41 40 39 39 40 39 39 39 39 40 40 40 40 40 41 41 41 41 42 42 43 44 45 45 46 46 46 46 45
39 39 39 39 40 40 40 40 40 39 39 39 39 40 40 40 40 40 40 39 39 39 40 40 40 41 42 42 43 44 44 46 46 46 47 47 47 45
39 39 38 38 38 38 39 39 39 39 39 39 39 39 39 39 39 40 40 39 39 39 40 41 41 42 43 44 44 44 45 45 45 46 46 46 45 44
38 38 39 39 39 39 39 39 38 38 38 38 38 39 39 39 39 39 39 38 39 40 41 41 41 42 43 44 45 45 45 45 46 45 45 44 43 43
38 38 38 39 39 38 38 38 38 37 37 38 37 38 38 38 38 38 38 39 40 40 41 41 42 43 44 44 44 43 43 43 43 43 42 41 41 40
37 37 37 38 37 37 37 37 38 37 37 37 37 37 37 37 38 38 38 39 40 41 42 42 43 43 44 43 43 43 43 43 41 41 40 39 39 38
36 36 36 36 37 37 37 37 37 37 37 37 37 36 36 37 38 38 38 40 41 42 42 42 42 42 42 42 42 42 42 42 40 40 39 38 38 36
35 35 36 36 37 37 37 37 38 38 37 37 36 36 37 37 38 38 39 40 41 41 41 40 40 41 41 41 41 41 41 41 40 39 38 37 36 34
34 35 36 36 36 37 37 37 37 37 37 37 37 37 37 38 39 39 40 40 40 40 40 40 40 40 40 40 40 40 39 39 39 38 36 35 33 32
35 35 36 36 36 37 37 37 36 36 36 37 37 37 37 37 38 39 40 40 40 39 39 39 39 39 39 38 39 39 39 38 38 36 35 33 31 30
35 35 36 36 36 36 37 36 36 36 37 36 37 37 38 38 39 39 40 40 40 39 39 39 39 39 39 37 37 38 38 37 37 35 34 32 29 27
35 35 35 36 35 36 36 36 36 36 36 36 37 37 38 39 39 40 40 40 40 40 39 39 39 39 38 37 37 37 37 37 36 34 32 30 28 26
35 35 35 35 35 35 36 36 36 36 36 36 37 37 38 38 39 39 39 39 39 40 40 39 39 38 38 38 37 36 35 35 34 32 30 28 27 26
35 35 35 34 34 35 35 35 36 36 36 36 36 37 37 38 38 39 39 38 38 39 39 38 38 37 37 37 36 35 34 33 31 30 28 27 26 24
35 36 35 34 34 34 35 36 36 36 36 36 36 36 36 37 37 38 37 37 37 37 37 37 37 37 36 35 34 33 32 31 30 28 27 26 25 25
35 35 34 34 34 34 35 36 36 36 36 36 36 36 36 36 36 36 36 36 36 35 35 35 35 35 34 33 33 32 31 29 28 27 26 26 25 24
34 34 34 34 34 34 35 35 36 36 36 36 36 36 35 35 35 35 35 35 34 34 34 34 34 33 32 32 32 32 31 29 27 27 26 25 24 24
34 34 34 34 34 34 35 35 35 36 36 35 35 34 34 33 34 34 34 34 33 33 33 34 33 33 32 32 32 31 30 29 27 25 24 24 23 24
34 34 34 35 35 35 35 36 35 35 34 34 34 33 33 33 33 33 33 33 33 33 33 34 33 33 32 32 30 29 28 28 26 24 23 23 22 22
34 34 34 35 35 36 36 35 35 34 34 33 33 33 33 33 33 33 33 33 33 33 33 33 33 32 32 30 29 27 26 26 25 24 23 22 22 21
33 33 34 34 34 34 35 34 34 33 33 33 33 33 33 33 33 33 33 33 33 33 33 32 32 31 30 29 28 26 25 25 24 24 23 23 22 21
Wind_Direction
267 268 270 270 271 273 274 275 275 275 276 277 278 280 280 281 283 284 285 286 287 288 288 287 287 288 287 288 289 289 290 289 290 290 290 291 290 289
267 268 268 269 269 271 273 275 275 275 276 277 278 280 281 282 282 284 286 287 288 288 287 288 289 288 289 289 289 290 290 291 291 291 292 291 290 289
268 268 269 270 270 271 272 274 275 275 275 277 279 280 281 283 284 285 287 287 288 289 289 289 289 289 290 290 291 291 291 292 293 292 292 292 290 289
267 268 269 269 270 271 272 273 274 274 275 276 278 280 281 281 283 285 287 287 288 289 289 289 290 290 291 292 293 294 293 293 293 293 293 292 290 288
266 267 269 269 270 271 272 273 274 275 276 277 278 279 280 281 283 285 285 286 287 289 289 290 291 292 292 292 295 296 296 296 295 294 294 292 290 287
266 266 267 268 269 270 271 273 274 275 276 278 279 279 280 281 283 283 284 286 288 289 290 291 293 294 294 294 295 296 297 298 297 295 294 292 290 288
265 265 266 268 270 271 271 272 273 275 277 278 279 280 280 281 282 282 283 285 287 289 290 292 293 294 295 295 295 296 297 298 298 297 295 293 291 289
268 267 267 267 269 270 270 272 274 276 278 279 280 281 282 283 283 284 284 286 288 289 290 292 293 294 295 296 296 296 298 299 299 298 297 295 293 290
269 268 268 268 269 271 271 273 275 277 278 279 280 282 283 283 284 285 286 288 290 291 291 292 293 294 295 296 297 297 298 299 299 299 298 296 294 290
269 269 269 269 271 272 273 274 276 277 278 279 280 281 282 283 284 286 287 289 291 292 292 292 292 294 296 296 296 297 297 298 299 299 298 296 295 290
270 270 270 270 270 272 273 274 275 276 277 279 280 281 282 284 285 286 288 290 291 292 292 292 292 294 295 296 296 297 298 298 299 299 298 297 296 290
271 271 270 270 271 273 274 274 275 276 278 279 281 281 282 284 286 288 290 291 292 292 292 293 293 294 294 295 296 297 298 299 299 298 297 297 294 290
271 270 270 271 272 273 274 274 275 276 277 279 279 281 282 284 286 289 291 292 293 293 293 293 294 294 295 295 295 297 298 298 298 297 297 295 292 289
270 270 271 271 271 272 273 274 275 276 277 278 279 281 282 284 286 289 291 291 293 293 294 294 295 295 296 296 296 296 297 297 298 297 295 293 290 287
269 269 270 271 272 273 273 274 276 276 277 279 280 281 282 284 286 288 290 291 292 293 294 295 296 296 296 295 295 295 296 297 296 294 292 289 287 284
269 271 272 273 273 273 273 274 275 277 278 279 280 281 283 286 288 289 291 292 292 293 294 296 296 297 297 296 295 296 297 297 296 293 289 286 284 282
269 271 272 273 273 274 274 274 276 278 279 280 280 282 284 286 288 290 291 292 293 294 295 296 296 298 298 297 296 296 297 296 294 291 287 284 282 280
269 270 271 272 274 275 276 276 277 278 279 279 280 282 285 287 289 290 291 292 294 295 295 296 296 298 298 297 296 296 297 296 292 289 286 282 279 276
269 269 271 272 274 276 277 277 277 278 278 279 281 283 285 287 289 290 291 292 293 294 295 296 297 297 298 299 297 295 295 294 291 288 286 282 278 275
268 269 270 272 274 275 277 278 278 279 279 281 282 284 284 286 289 290 291 292 293 294 295 296 297 297 298 299 298 295 294 293 290 287 285 282 278 275
267 268 270 271 273 275 277 278 278 279 281 281 282 283 284 286 288 289 290 291 293 294 295 296 296 296 297 297 297 295 292 292 290 286 284 281 278 274
267 268 270 272 273 275 277 278 279 280 281 280 281 282 283 286 288 289 290 291 293 295 296 296 296 296 296 296 295 292 291 290 289 287 285 281 277 273
268 269 271 272 274 275 276 277 278 280 280 280 281 281 283 286 288 289 290 291 293 294 295 296 296 296 295 295 294 292 290 288 287 285 283 280 277 274
Height
5703 5704 5704 5705 5705 5705 5705 5705 5706 5706 5706 5705 5703 5702 5701 5700 5699 5698 5696 5695 5693 5691 5689 5687 5685 5682 5679 5677 5674 5671 5668 5665 5662 5659 5656 5652 5649 5646
5693 5694 5694 5695 5695 5695 5695 5695 5695 5695 5696 5695 5694 5693 5691 5690 5689 5687 5686 5684 5682 5680 5678 5676 5673 5671 5668 5665 5662 5660 5656 5653 5650 5646 5643 5639 5636 5633
5683 5684 5684 5685 5685 5685 5686 5685 5685 5685 5686 5686 5684 5683 5682 5681 5679 5677 5676 5674 5672 5669 5667 5665 5662 5660 5657 5654 5651 5647 5644 5640 5637 5633 5629 5626 5622 5619
5673 5674 5675 5675 5675 5675 5675 5676 5676 5675 5676 5676 5675 5673 5672 5671 5669 5668 5666 5664 5662 5659 5657 5654 5651 5649 5646 5642 5639 5635 5631 5627 5623 5619 5616 5612 5608 5604
5663 5664 5665 5665 5666 5666 5666 5666 5666 5666 5665 5665 5664 5663 5662 5661 5659 5658 5656 5654 5651 5649 5646 5644 5641 5637 5634 5631 5627 5623 5618 5614 5610 5606 5601 5597 5593 5589
5653 5654 5655 5655 5656 5656 5656 5656 5656 5656 5655 5655 5654 5653 5652 5651 5649 5648 5646 5644 5641 5638 5636 5633 5629 5626 5622 5619 5615 5610 5606 5601 5596 5592 5587 5583 5579 5576
5643 5644 5644 5645 5645 5646 5646 5646 5646 5646 5645 5645 5644 5643 5642 5640 5639 5637 5636 5634 5631 5628 5625 5622 5618 5615 5610 5606 5602 5598 5593 5588 5583 5578 5574 5570 5566 5562
5632 5633 5634 5635 5635 5636 5636 5636 5636 5636 5635 5634 5634 5633 5632 5630 5629 5627 5625 5623 5621 5618 5614 5611 5607 5603 5599 5594 5590 5585 5581 5576 5571 5566 5562 5557 5554 5550
5623 5623 5624 5625 5625 5626 5626 5626 5626 5625 5625 5625 5624 5623 5621 5620 5618 5616 5614 5612 5610 5606 5603 5600 5596 5591 5587 5582 5577 5573 5569 5564 5560 5555 5550 5546 5542 5539
5613 5614 5614 5614 5615 5616 5616 5616 5616 5615 5614 5614 5613 5612 5610 5609 5607 5605 5603 5601 5598 5594 5590 5588 5584 5580 5576 5571 5566 5561 5557 5553 5548 5544 5539 5535 5531 5528
5603 5604 5604 5605 5605 5605 5606 5606 5605 5605 5604 5603 5602 5601 5599 5598 5596 5594 5592 5589 5587 5584 5579 5576 5573 5569 5565 5560 5555 5550 5546 5542 5537 5533 5529 5525 5521 5518
5593 5594 5594 5594 5595 5595 5595 5595 5595 5594 5593 5592 5591 5590 5589 5587 5585 5583 5580 5577 5574 5572 5568 5564 5561 5557 5555 5551 5545 5540 5535 5531 5527 5523 5519 5515 5512 5509
5583 5583 5583 5584 5584 5584 5584 5584 5584 5584 5583 5582 5581 5580 5578 5576 5574 5571 5568 5565 5563 5560 5557 5553 5550 5545 5542 5540 5536 5530 5525 5521 5517 5513 5510 5506 5503 5500
5573 5573 5573 5573 5573 5573 5573 5573 5573 5573 5572 5571 5570 5569 5567 5565 5563 5560 5557 5554 5551 5548 5545 5541 5538 5534 5530 5527 5525 5520 5515 5511 5507 5504 5500 5497 5495 5493
5562 5562 5562 5562 5562 5562 5562 5562 5562 5561 5561 5560 5559 5557 5556 5554 5551 5549 5546 5543 5540 5536 5533 5529 5526 5522 5519 5516 5513 5510 5506 5502 5497 5494 5491 5489 5487 5486
5551 5551 5551 5551 5551 5551 5551 5550 5550 5550 5549 5548 5547 5546 5544 5542 5540 5537 5535 5532 5529 5526 5521 5517 5514 5511 5507 5504 5501 5499 5495 5492 5489 5485 5483 5481 5480 5478
5540 5540 5540 5540 5540 5540 5540 5539 5539 5538 5538 5537 5536 5534 5533 5531 5528 5526 5523 5520 5518 5515 5511 5507 5504 5500 5496 5493 5491 5488 5485 5482 5479 5477 5475 5474 5472 5471
5529 5529 5529 5529 5529 5529 5529 5528 5528 5527 5526 5525 5524 5523 5521 5519 5517 5515 5512 5509 5507 5504 5501 5498 5494 5491 5488 5484 5481 5479 5476 5473 5471 5468 5467 5466 5465 5464
5518 5518 5518 5518 5518 5518 5518 5517 5516 5516 5515 5514 5513 5511 5510 5508 5506 5504 5501 5499 5496 5494 5491 5488 5484 5482 5479 5476 5472 5468 5466 5464 5462 5460 5458 5457 5457 5456
5507 5507 5507 5508 5507 5507 5507 5506 5505 5504 5503 5503 5501 5500 5499 5497 5495 5493 5490 5488 5486 5483 5481 5478 5475 5472 5469 5466 5463 5459 5456 5455 5453 5452 5450 5449 5449 5448
5495 5496 5496 5496 5496 5496 5496 5495 5494 5493 5492 5492 5491 5489 5488 5486 5485 5482 5480 5478 5476 5473 5471 5468 5465 5462 5459 5456 5454 5451 5448 5446 5444 5443 5442 5442 5441 5441
5484 5484 5485 5485 5485 5485 5484 5484 5483 5483 5482 5481 5480 5479 5478 5476 5474 5472 5470 5468 5466 5463 5461 5458 5455 5452 5449 5447 5444 5442 5440 5438 5436 5435 5434 5434 5433 5434
5473 5473 5473 5474 5474 5474 5473 5473 5473 5472 5471 5470 5470 5468 5467 5466 5464 5462 5460 5458 5456 5453 5451 5448 5445 5443 5440 5438 5436 5434 5432 5431 5430 5428 5427 5426 5426 5426